Regional Weather Roundup
Issued by NWS Newport/Morehead, NC

Current Version | Previous Version | Text Only | Print | Product List | Glossary On
Versions: 1 2 3 4 5 6 7 8 9 10 11 12 13 14 15 16 17 18 19 20 21 22 23 24 25 26 27 28 29 30 31 32 33 34 35 36 37 38 39 40 41 42 43 44 45 46 47 48 49 50
000
ASUS42 KMHX 210322
RWRMHX
WEATHER ROUNDUP FOR EASTERN NORTH CAROLINA
NATIONAL WEATHER SERVICE NEWPORT/MOREHEAD CITY NC
1000 PM EST SAT DEC 20 2014

NOTE: "FAIR" INDICATES FEW OR NO CLOUDS BELOW 12,000 FEET
WITH NO SIGNIFICANT WEATHER AND/OR OBSTRUCTIONS TO VISIBILITY

NCZ015>017-031-032-045>047-102-103-210400-
NORTH COAST

CITY           SKY/WX    TMP DP  RH WIND       PRES   REMARKS
EDENTON        PTCLDY    37  33  84 CALM      30.29F
ELIZABETH CITY CLEAR     40  30  67 E3        30.30S
KITTY HAWK     CLEAR     40  33  76 CALM      30.27S
MANTEO         CLEAR     39  33  80 N6        30.29S

$$

NCZ045>047-081-094-103-104-210400-
CENTRAL COAST

CITY           SKY/WX    TMP DP  RH WIND       PRES   REMARKS
FRISCO         MOCLDY    43  37  79 NE7       30.27S
SWANQUARTER      N/A     39 N/A N/A NE3       30.24S

$$

NCZ095-097-098-100-101-210400-
SOUTHERN COAST

CITY           SKY/WX    TMP DP  RH WIND       PRES   REMARKS
BEAUFORT       CLOUDY    40  37  89 N7        30.27S
CEDAR ISLAND     N/A     43 N/A N/A N10       30.30S
JACKSONVILLE   CLEAR     37  35  92 NE7       30.27F
PINEY ISLAND   PTCLDY    44  34  67 NE7       30.27S
WILMINGTON     CLOUDY    39  37  92 NE6       30.27R


$$

NCZ011>013-027>030-043-044-078>080-089-090>093-098-210400-
COASTAL PLAIN

CITY           SKY/WX    TMP DP  RH WIND       PRES   REMARKS
AHOSKIE        CLOUDY    33  31  91 CALM      30.30S
CLINTON        CLEAR     37  37  99 CALM      30.28F FOG
ELIZABETHTOWN  CLOUDY    37  37 100 CALM      30.27S FOG
GOLDSBORO      NOT AVBL
GREENVILLE     CLOUDY    39  36  87 CALM      30.30R
HAVELOCK       CLEAR     39  35  86 N7        30.29S
KENANSVILLE    CLEAR     33  33 100 CALM      30.29S FOG
KINSTON        CLOUDY    40  37  92 N3        30.29S
NEW BERN       CLEAR     40  34  79 NE3       30.29S
RICHLANDS      CLEAR     34  30  86 CALM      30.28S
ROCKY MOUNT    CLOUDY    38  35  89 CALM      30.29S
WASHINGTON     CLOUDY    39  33  78 CALM      30.29S
WHITEVILLE     MOCLDY    39  37  91 NE3       30.26S FOG

$$

AMZ130-135-150-152-154-156-158-170-250-252-270-ANZ085-086-088-633-658-670-210400-
MARINE OBSERVATIONS

STATION/POSITION TIME  TEMP    WIND        PRES    WAVE   SWELL
                       AIR SEA DIR/SP/G            HT/PER HT/PER
                 (UTC) (F)     (DEG/KT/KT) (MB)    (FT/S) (FT/S)
CHESAPEAKE LIGHT 0300   39      10/  9/ 10 1026.3
64 E VA BEACH    0300   43 54  350/ 10/ 14 1024.9    2/ 5   2/ 5
DUCK             0300   42 46   10/  6/  9 1024.7
2 E DUCK         0300      46                N/A     2/ 5
10 NE DUCK       0300      52                N/A     2/ 6
OREGON INLET     0300   40 48  340/  4/  5 1025.2
13E OREGON INLT  0300      52                N/A     3/ 6
HATTERAS CG      0300   45 51   20/ 11/ 14 1025.0
DIAMOND BUOY     0300   48                 1024.7    3/ 4
17 S OCRACOKE    NOT AVBL
CAPE LOOKOUT     0300   44      20/ 10/ 13 1024.5
BEAUFORT LAB     0300   42 52   20/  7/  9 1023.7
30 SE NEW RIVER  0300   50 61   40/ 16/ 19 1024.2    3/ 4   2/ 9
5 SE WRIGHTSVLE  NOT AVBL
225 S CAPE HAT   0216   65 71   90/ 21/ 27 1020.2    6/ 5   2/10
41 SE CHARLESTON 0300   62 69   30/ 17/ 21 1021.0    5/ 6

$$



USA.gov is the U.S. government's official web portal to all federal, state and local government web resources and services.